Regional Weather Roundup
Issued by NWS Jackson, KY

Home | Current Version | Previous Version | Text Only | Print | Product List | Glossary Off
Versions: 1 2 3 4 5 6 7 8 9 10 11 12 13 14 15 16 17 18 19 20 21 22 23 24 25 26 27 28 29 30 31 32 33 34 35 36 37 38 39 40 41 42 43 44 45 46 47 48 49 50

000
ASUS43 KJKL 152310
RWRJKL

EAST KENTUCKY HOURLY WEATHER ROUNDUP
NATIONAL WEATHER SERVICE JACKSON KY
700 PM EDT MON SEP 15 2014

NOTE: "FAIR" INDICATES FEW OR NO CLOUDS BELOW 12,000 FEET WITH
NO SIGNIFICANT WEATHER AND/OR OBSTRUCTIONS TO VISIBILITY.

* THESE REPORTS ARE NOT UNDER NWS QUALITY CONTROL AND MAY NOT
  REPORT WEATHER SUCH AS PRECIPITATION AND FOG.

KYZ079-080-083-085-087-088-110-112-115-119-120-160000
...EASTERN KENTUCKY...

CITY           SKY/WX    TMP DP  RH WIND       PRES   REMARKS
JACKSON        CLOUDY    70  58  65 W3        30.14S
LONDON         CLOUDY    72  61  68 SW6       30.15S
MONTICELLO*    CLOUDY    70  61  73 CALM      30.14F
WILLIAMSBURG*  CLEAR     66  66 100 CALM      30.15S
MIDDLESBORO*   LGT RAIN  69  67  93 CALM      30.14F
HARLAN APT*    CLOUDY    64  63  94 MISG      30.15F
BLACK MTN*       N/A     59  55  88 S3          N/A
PIKEVILLE APT* CLEAR     68  59  73 CALM      30.13F
BIG SANDY*     CLOUDY    69  62  78 CALM      30.13F
MOREHEAD APT*  CLOUDY    70  59  68 CALM      30.15S
$$

KYZ035-036-041-042-044-050-067-078-099-160000
...CENTRAL KENTUCKY...

CITY           SKY/WX    TMP DP  RH WIND       PRES   REMARKS
MT STERLING*   CLOUDY    70  59  68 N5        30.15R
FLEMING/MASON* LGT RAIN  66  57  72 SE6       30.09F
DANVILLE*      CLOUDY    68  55  64 CALM      30.12F
RICHMOND*      CLOUDY    70  57  64 CALM      30.12S
LEXINGTON      CLOUDY    71  52  50 E3        30.11F
FRANKFORT      CLOUDY    68  54  60 SE8       30.04F
$$

KYZ091>093-OHZ055-061-077-WVZ005-015-034-035-042-160000
...SOUTHERN OHIO/WEST VIRGINIA...

CITY           SKY/WX    TMP DP  RH WIND       PRES   REMARKS
COVINGTON      CLOUDY    60  53  77 S6        30.08R
COLUMBUS       LGT RAIN  69  50  50 S8G18     30.04F
DAYTON         CLOUDY    61  56  83 W10       30.10R
WILMINGTON     CLOUDY    62  55  77 S10G20    30.02F
HUNTINGTON     MOCLDY    69  59  70 CALM      30.12S
PINEVILLE*     CLOUDY    68  66  92 MISG      30.20S
BECKLEY        CLOUDY    67  56  67 W7        30.17S
BLUEFIELD      CLOUDY    69  61  75 NW5       30.19S
$$

VAZ002-007-008-TNZ017-027-036-066-071-160000
...SOUTHWEST VIRGINIA/EAST TENNESSEE...

CITY           SKY/WX    TMP DP  RH WIND       PRES   REMARKS
WISE*          CLOUDY    66  61  82 S5        30.20F
JONESVILLE*    CLOUDY    70  66  88 CALM      30.17S
ABINGDON*      CLOUDY    70  65  82 CALM      30.18R
BRISTOL        CLOUDY    73  62  68 W5        30.15R
KNOXVILLE      CLOUDY    75  67  76 CALM      30.12S
OAK RIDGE      CLOUDY    73  68  84 CALM      30.14F
CROSSVILLE     CLOUDY    69  63  81 CALM      30.16F
NASHVILLE      CLOUDY    72  63  73 CALM      30.12S
$$

...KEY TO REMARKS...
VSB - VISIBILITY IN MILES
WCI - WIND CHILL INDEX
HX  - HEAT INDEX

$$


USA.gov is the U.S. government's official web portal to all federal, state and local government web resources and services.